BEIJING-3B (53587 NORAD) Tracking and Keplerian Element Data

This shows tracking and keplerian element data for the satellite.

Feedback or suggestion? Click here.




ElementValue
Catalog53587
NameBEIJING-3B
Epoch Orbit1324
Epoch Day325.17146573
Epoch Year2022
RAAN33.7659
Inclination97.9309
Eccentricity0.0013833
Argument of Perigee337.1822
Mean Anonmoly22.8806
Mean Motion14.87511523
Decay Rate1.026E-05
L11 53587U 22103A 22325.17146573 .00001026 00000+0 11915-3 0 9992
L22 53587 97.9309 33.7659 0013833 337.1822 22.8806 14.87511523 13247



Live tracking and technical data element details for BEIJING-3B (NORAD 53587). BEIJING-3B can be tracked NOW for your location showing map with azimuth and elevation plus other details from your city location.







IsCatalogInMostPopularTable: catalog: 53587, numindb: 4
Update: records affected: 1



GetName: 53587 BEIJING-3B

Hit Count: updated at: Thu, 08 Dec 2022 20:04:37 GMT